Date,TemperatureHighF,TemperatureAvgF,TemperatureLowF,DewpointHighF,DewpointAvgF,DewpointLowF,HumidityHigh,HumidityAvg,HumidityLow,PressureMaxIn,PressureMinIn,WindSpeedMaxMPH,WindSpeedAvgMPH,GustSpeedMaxMPH,PrecipitationSumIn
2013-5-1,68.7,50.8,32.2,36.3,28.8,20.3,79,49,16,30.14,29.99,17,4,17,0.00
2013-5-2,77.7,58.4,39.9,41.7,33.4,27.3,68,43,18,30.14,29.83,14,3,14,0.00
2013-5-3,80.6,64.5,46.9,45.1,40.3,33.2,74,45,22,29.90,29.72,13,3,13,0.00
2013-5-4,82.6,67.2,50.0,44.1,35.3,24.1,70,37,12,29.77,29.56,18,5,18,0.00
2013-5-5,84.7,69.5,52.9,44.3,37.4,29.5,53,32,19,29.56,29.36,23,5,23,0.00
2013-5-6,81.3,67.5,51.4,52.5,46.0,39.1,63,47,32,29.47,29.31,17,4,17,0.00
2013-5-7,76.3,66.0,55.6,51.9,49.0,46.0,70,55,39,29.55,29.40,25,11,25,0.11
2013-5-8,67.1,60.6,53.1,51.8,49.6,46.9,81,68,55,29.68,29.55,34,14,34,0.73
2013-5-9,76.5,65.0,54.1,54.7,52.0,48.8,82,64,44,29.72,29.62,21,9,21,0.00
2013-5-10,82.9,69.9,55.0,55.3,51.9,47.3,83,55,33,29.76,29.65,17,5,17,0.00
2013-5-11,86.7,73.1,62.2,57.7,53.1,50.0,68,51,33,29.76,29.57,21,5,21,0.00
2013-5-12,72.7,65.1,58.5,57.7,54.2,49.8,87,69,50,29.70,29.62,27,8,27,0.08
2013-5-13,67.8,59.0,51.8,54.5,49.8,39.2,89,72,53,29.79,29.60,26,8,26,0.08
2013-5-14,67.5,56.4,45.1,42.4,36.9,21.5,75,51,19,29.80,29.66,18,6,18,0.00
2013-5-15,60.1,53.7,47.7,47.5,43.7,38.7,83,69,59,29.70,29.61,16,5,16,0.00
2013-5-16,68.2,56.9,48.6,52.0,47.1,44.0,86,71,49,29.62,29.47,19,5,19,0.00
2013-5-17,64.8,55.6,49.3,49.0,45.7,40.3,94,71,45,29.67,29.55,22,7,22,0.27
2013-5-18,57.9,53.4,50.0,47.4,45.3,43.1,84,74,62,29.84,29.66,19,7,19,0.01
2013-5-19,63.5,57.4,50.9,48.5,46.6,45.1,84,68,54,29.92,29.83,26,8,26,0.00
2013-5-20,73.9,59.8,42.3,49.6,44.6,39.0,89,60,35,29.90,29.46,18,5,18,0.00
2013-5-21,60.3,50.5,41.0,46.0,41.2,36.7,89,71,51,29.51,29.38,21,8,21,0.18
2013-5-22,46.2,43.9,41.5,42.0,39.3,35.9,92,84,75,29.57,29.48,19,4,19,0.17
2013-5-23,52.7,46.2,40.6,45.8,41.9,38.5,93,85,73,29.63,29.56,11,3,11,0.07
2013-5-24,60.1,50.6,44.4,45.7,43.8,42.3,93,79,56,29.67,29.58,18,5,18,0.11
2013-5-25,67.8,55.8,43.3,47.4,44.8,39.7,88,68,44,29.65,29.53,18,5,18,0.00
2013-5-26,66.2,57.1,49.6,51.8,47.5,44.0,92,72,50,29.61,29.53,21,6,21,0.11
2013-5-27,56.5,51.9,47.7,53.3,48.2,43.4,92,87,71,29.59,29.36,9,3,9,0.30
2013-5-28,64.8,55.9,50.0,49.5,46.7,43.0,86,72,53,29.52,29.37,61,6,61,0.01
2013-5-29,61.2,52.7,48.2,50.2,47.2,44.1,91,82,60,29.61,29.28,25,6,25,0.66
2013-5-30,63.7,53.8,45.9,46.1,44.1,42.0,89,71,51,29.83,29.60,18,7,18,0.02
2013-5-31,69.8,57.9,45.1,48.1,45.1,41.2,87,65,41,29.91,29.79,17,6,17,0.00